Weather History for KGCN - March, 2013

Change the Weather History Date:

Monday, March 25, 2013

  Actual Average Record
Temperature  
Mean Temperature 37 °F -  
Max Temperature 57 °F 54 °F 68 °F (2004)
Min Temperature 17 °F 21 °F 12 °F (2009)
Degree Days  
Heating Degree Days 28    
Moisture  
Dew Point 8 °F    
Average Humidity 37    
Maximum Humidity 65    
Minimum Humidity 14    
Precipitation  
Precipitation 0.00 in - - ()
Sea Level Pressure  
Sea Level Pressure 30.06 in    
Wind  
Wind Speed 2 mph (WNW)    
Max Wind Speed 12 mph    
Max Gust Speed 20 mph    
Visibility 10 miles    
Events      
Averages and records for this station are not official NWS values.
T = Trace of Precipitation, MM = Missing Value Source: NWS Daily Summary

Daily Weather History Graph

Daily Weather History Graph

Search for Another Location

Airport or City:

Trip Planner

Search our weather history database for the weather conditions in past years. The results will help you decide how hot, cold, wet, or windy it might be!

Date:

Astronomy

Mar. 25, 2013 Rise Set
Actual Time 6:24 AM MST 6:44 PM MST
Civil Twilight 5:58 AM MST 7:10 PM MST
Nautical Twilight 5:28 AM MST 7:40 PM MST
Astronomical Twilight 4:58 AM MST 8:11 PM MST
Moon 5:22 PM MST 5:07 AM MST
Length of Visible Light 13h 11m
Length of Day
12h 20m
Waxing Gibbous, 97% of the Moon is Illuminated
Mar 25
Waxing Gibbous
Mar 27
Full
Apr 2
Last Quarter
Apr 10
New
Apr 18
First Quarter

Hourly Weather History & Observations

Time (MST) Temp. Windchill Dew Point Humidity Pressure Visibility Wind Dir Wind Speed Gust Speed Precip Events Conditions
12:54 AM 18.0 °F - 3.9 °F 54% 30.08 in 10.0 mi Calm Calm - N/A   Clear
1:54 AM 18.0 °F - 6.1 °F 60% 30.07 in 10.0 mi Calm Calm - N/A   Clear
2:54 AM 17.1 °F - 6.1 °F 62% 30.06 in 10.0 mi Calm Calm - N/A   Clear
3:54 AM 17.1 °F - 7.0 °F 65% 30.07 in 10.0 mi Calm Calm - N/A   Clear
4:54 AM 17.1 °F - 7.0 °F 65% 30.08 in 10.0 mi Calm Calm - N/A   Clear
5:54 AM 19.0 °F - 8.1 °F 62% 30.09 in 10.0 mi Calm Calm - N/A   Clear
6:54 AM 21.0 °F - 8.1 °F 57% 30.12 in 10.0 mi Calm Calm - N/A   Clear
7:54 AM 37.9 °F 32.7 °F 3.9 °F 24% 30.09 in 10.0 mi East 6.9 mph - N/A   Clear
8:54 AM 44.1 °F 40.1 °F 3.0 °F 18% 30.10 in 10.0 mi East 6.9 mph - N/A   Clear
9:54 AM 48.0 °F - 3.9 °F 16% 30.10 in 10.0 mi Variable 3.5 mph - N/A   Clear
10:54 AM 50.0 °F - 5.0 °F 16% 30.09 in 10.0 mi Variable 3.5 mph - N/A   Clear
11:54 AM 54.0 °F - 8.1 °F 16% 30.07 in 10.0 mi West 5.8 mph - N/A   Clear
12:54 PM 54.0 °F - 6.1 °F 15% 30.07 in 10.0 mi Variable 4.6 mph - N/A   Clear
1:54 PM 57.0 °F - 8.1 °F 14% 30.04 in 10.0 mi WSW 11.5 mph - N/A   Clear
2:54 PM 57.0 °F - 8.1 °F 14% 30.04 in 10.0 mi Variable 6.9 mph 19.6 mph N/A   Clear
3:54 PM 57.9 °F - 8.1 °F 14% 30.00 in 10.0 mi WSW 8.1 mph 16.1 mph N/A   Clear
4:54 PM 57.9 °F - 8.1 °F 14% 30.01 in 10.0 mi WNW 8.1 mph - N/A   Clear
5:54 PM 55.0 °F - 10.0 °F 17% 30.03 in 10.0 mi NNE 6.9 mph - N/A   Clear
6:54 PM 45.0 °F - 12.9 °F 27% 30.07 in 10.0 mi Calm Calm - N/A   Clear
7:54 PM 37.0 °F - 15.1 °F 41% 30.03 in 10.0 mi Calm Calm - N/A   Clear
8:54 PM 32.0 °F - 14.0 °F 48% 30.05 in 10.0 mi Calm Calm - N/A   Clear
9:54 PM 30.0 °F - 14.0 °F 51% 30.06 in 10.0 mi Calm Calm - N/A   Clear
10:54 PM 30.0 °F - 14.0 °F 51% 30.05 in 10.0 mi Calm Calm - N/A   Clear
11:54 PM 27.0 °F - 14.0 °F 58% 30.03 in 10.0 mi Calm Calm - N/A   Clear